Regional Weather Roundup
Issued by NWS Midland/Odessa, TX

Skip options and go directly to product.
Home | Oldest Version | Previous Version | Current Version | All | Graphics & Text | Save Text | Print | Product List | Glossary On

Skip product version selection by date and time.   
013
ASUS44 KMAF 180010
RWRMAF
MIDLAND AREA WEATHER ROUNDUP
NATIONAL WEATHER SERVICE MIDLAND TX
700 PM CDT THU APR 17 2014

...IN SOUTHWEST TEXAS AND SOUTHEAST NEW MEXICO...

CITY           SKY/WX    TMP DP  RH WIND       PRES   REMARKS
ALPINE         SUNNY     72  28  19 E14       30.15F
ANDREWS        FAIR      69  42  36 MISG      30.10R
ARTESIA        SUNNY     70  32  24 NE6       30.09S
BIG SPRING     SUNNY     66  46  47 NE16      30.13R
CARLSBAD       SUNNY     75  28  17 N6        30.06S
DRYDEN           N/A     80  44  27 E12       29.99R
FORT STOCKTON  SUNNY     76  37  24 NE10      30.05R
GUAD PASS      SUNNY     63  29  27 E23       30.15R
HOBBS          SUNNY     68  32  26 NE9       30.11S
MARFA          SUNNY     70  27  19 NE20      30.12S
MIDLAND AIRPK  SUNNY     73  42  32 NE14      30.08S
MIDLAND INTL   SUNNY     73  43  33 NE14      30.07R
ODESSA         SUNNY     73  41  31 NE17      30.08R
PECOS          SUNNY     78  34  20 NE5       30.03S
PRESIDIO       FAIR      86  23  10 NE12G20   29.94R
SEMINOLE       SUNNY     68  38  32 NE10      30.11S
SNYDER         SUNNY     57  48  72 N14       30.15R
WINK           SUNNY     77  34  21 E8        30.03S
$$
...OTHER STATIONS IN TEXAS...

CITY           SKY/WX    TMP DP  RH WIND       PRES   REMARKS
ABILENE        CLOUDY    58  52  80 N16       30.12R
AMARILLO       CLOUDY    49  36  61 NE9       30.21S
AUSTIN         LGT RAIN  63  61  93 N7        30.09R FOG
BROWNSVILLE    LGT RAIN  70  68  93 NE13      29.97S
CORPUS CHRISTI CLOUDY    69  63  81 E13G22    30.03R
DALLAS FTW     LGT RAIN  59  55  87 NE9       30.14S FOG
DEL RIO        SUNNY     80  51  36 VRB3      29.96S
EL PASO        SUNNY     81  18   9 NE5       30.01S
HOUSTON INT    MOCLDY    67  55  65 SE9       30.09R
LUBBOCK        MOSUNNY   58  40  51 NE14      30.16R
SAN ANGELO     CLOUDY    66  54  65 NE14      30.08S
SAN ANTONIO    LGT RAIN  63  61  93 E9        30.08R FOG
WACO           CLOUDY    63  59  87 NW5       30.11R
WICHITA FALLS  NOT AVBL
$$
...OTHER LOCATIONS IN NEW MEXICO...

CITY           SKY/WX    TMP DP  RH WIND       PRES   REMARKS
ALAMAGORDO     MOSUNNY   75  18  11 CALM      30.04S
ALBUQUERQUE    MOSUNNY   68  22  17 S7        30.08F
CANNON AFB     SUNNY     61  33  35 NE10      30.16S
CLOVIS         SUNNY     61  34  36 NE9       30.19S
HOLLOMAN AFB   MOSUNNY   77  19  11 SW6       30.02F
ROSWELL        SUNNY     72  30  21 N9        30.09S
RUIDOSO        SUNNY     57  27  30 E14       30.21S
SANTA FE       SUNNY     64  26  23 SE16      30.11F
TRUTH OR CONSE SUNNY     75  21  13 CALM      30.03F
TUCUMCARI      SUNNY     59  34  39 E12       30.16S
$$

USA.gov is the U.S. government's official web portal to all federal, state and local government web resources and services.